[[{"header":{"parameterUnit":"m.s-1","parameterCategory":1,"la1":30.2991,"la2":30.254,"lo1":-89.0895,"lo2":-89.0444,"dy":0.0017,"dx":0.0017,"nx":28,"ny":28,"refTime":"2024-07-23T09:00:00:Z","depth":0,"parameterNumber":2,"parameterNumberName":"U-component_of_WINDS"},"data":[0,0,0,0,0,0,0,0,0,0,0,0,0,0,0,0,0,0,0,0,0,0,0,0,0,0,0,0,0,0,0,0,0,0,0,0,0,0,0,0,0,0,0,0,0,0,0,0,0,0,0,0,0,0,0,0,0,0,1.9679,1.9679,0,1.9743,1.9744,1.9745,1.9732,1.9731,1.973,1.9729,1.9792,1.9795,1.9797,0,0,0,0,0,0,0,0,0,0,0,0,0,1.9541,1.9544,1.9679,1.968,1.968,1.9743,1.9744,1.9745,1.9732,1.9731,1.973,1.9728,1.9791,1.9794,1.9798,0,0,0,0,0,0,0,0,0,0,0,0,0,1.9603,1.9545,1.9679,1.9682,1.9683,1.9743,1.9744,1.9745,1.9733,1.9731,1.9729,1.9728,1.979,1.9794,1.9798,1.9858,0,0,1.9811,1.9813,0,0,0,0,0,0,0,0,1.9599,1.9608,1.9681,1.9682,1.9683,1.9728,1.9719,1.9783,1.9733,1.9714,1.9729,1.9727,1.9772,1.9777,1.9793,1.9861,1.9864,1.9811,1.9814,1.9815,1.9817,0,0,0,0,0,0,0,1.9595,1.9605,1.9704,1.9682,1.9683,1.9679,1.9686,1.9731,1.9752,1.9715,1.9714,1.9722,1.9772,1.9789,1.9795,1.9865,1.9811,1.9815,1.9817,1.9819,1.9982,1.9984,0,0,0,0,0,0,1.959,1.9601,1.9702,1.9706,1.9636,1.9683,1.969,1.9715,1.9751,1.9755,1.9724,1.9722,1.9783,1.979,1.9797,1.9867,1.9815,1.9819,1.9822,1.998,1.9983,1.9985,0,0,0,0,0,0,1.9587,1.9599,1.9699,1.9654,1.9666,1.9687,1.9715,1.9717,1.9734,1.9758,1.9761,1.9738,1.9782,1.9791,1.9843,1.9869,1.9821,1.9825,1.9978,1.9981,1.9984,2.001,0,0,0,0,0,0,1.9583,1.9598,1.9622,1.9654,1.9669,1.9745,1.9717,1.972,1.9742,1.974,1.9771,1.9775,1.9781,1.9836,1.9847,1.9874,1.9828,1.9976,1.998,1.9983,2.0006,2.0013,2.0019,0,0,0,0,0,1.9579,1.9627,1.9624,1.9636,1.9699,1.9747,1.9755,1.9762,1.9744,1.9767,1.9782,1.9774,1.9865,1.9842,1.9853,1.9882,1.9974,1.9979,1.9983,2.0004,2.0012,2.0018,0,0,0,0,0,0,1.9597,1.9631,1.9628,1.9689,1.9715,1.9745,1.9775,1.9771,1.9802,1.9798,1.9805,1.9812,1.9864,1.9879,1.9852,1.9941,1.9917,1.9924,1.9929,1.9937,1.9943,1.9937,1.9832,0,0,0,0,0,1.9609,1.9646,1.9673,1.9724,1.9737,1.9754,1.9775,1.9778,1.9805,1.9816,1.9835,1.986,1.9894,1.9917,1.995,2.0009,2.0014,2.0035,2.0041,2.0045,2.005,2.008,2.0088,1.9998,1.9998,1.9998,0,0,1.9632,1.9655,1.9678,1.9728,1.9749,1.9785,1.9763,1.9804,1.983,1.9822,1.9871,1.9886,1.9915,1.997,1.9995,1.9984,2.0077,2.0051,2.0055,2.0057,2.0085,2.0093,2.0101,2.0001,2.0001,2.0,0,0,1.9692,1.9715,1.9759,1.978,1.9812,1.9822,1.9833,1.9863,1.9872,1.9922,1.9916,1.9948,2.0007,2.0027,2.0045,2.0113,2.0105,2.0123,2.0154,2.0183,2.019,2.0196,2.0217,2.0225,2.0129,2.0129,2.0129,0,1.9717,1.9773,1.9781,1.9821,1.9842,1.9838,1.988,1.99,1.9941,1.9955,1.9942,2.0015,2.0035,2.0093,2.0109,2.0125,2.0135,2.0118,2.0188,2.0194,2.02,2.022,2.0229,2.013,2.013,2.013,2.013,0,1.98,1.9839,1.987,1.9909,1.9934,1.9976,1.9989,2.0013,2.0013,2.0025,2.0074,2.0098,2.0134,2.0148,2.015,2.0206,2.0198,2.0187,2.0162,2.0211,2.0229,2.0237,2.0133,2.0132,2.0132,2.0131,0,0,1.9873,1.9917,1.9928,1.9944,1.9979,2.0008,2.0049,2.0085,2.0104,2.0132,2.0164,2.0214,2.0204,2.0224,2.0228,2.0253,2.0301,2.0239,2.0239,2.0247,2.0362,2.0368,2.0377,2.0298,2.0299,2.0301,2.0358,0,1.9935,2.0007,2.0015,2.0078,2.0112,2.0108,2.0143,2.0167,2.0178,2.0208,2.0221,2.0255,2.024,2.0252,2.0277,2.029,2.0324,2.0287,2.0325,2.0327,2.0316,2.0387,2.0395,2.0448,2.0366,2.0367,2.0368,0,2.0016,2.0047,2.0113,2.0141,2.0156,2.0187,2.022,2.0249,2.0276,2.0282,2.0304,2.0304,2.0344,2.032,2.0373,2.0347,2.0364,2.0373,2.0375,2.0376,2.0349,2.0388,2.0465,2.0472,2.0381,2.038,2.0379,0,2.0059,2.0117,2.0164,2.0179,2.0213,2.0235,2.025,2.0275,2.0296,2.0324,2.0337,2.037,2.0387,2.0411,2.0419,2.0401,2.0471,2.0448,2.0475,2.0475,2.0488,2.0487,2.0566,2.0503,2.0503,2.0503,2.0503,0,2.0126,2.0166,2.0183,2.0212,2.0256,2.0265,2.0308,2.0322,2.0344,2.0373,2.0372,2.04,2.041,2.0439,2.0446,2.0487,2.0495,2.05,2.0501,2.0499,2.0498,2.0508,2.0503,2.0505,2.0505,2.0504,2.0504,0,2.018,2.0194,2.0244,2.0273,2.0281,2.0312,2.0335,2.0362,2.0373,2.0411,2.042,2.0437,2.0471,2.0482,2.0523,2.0527,2.0574,2.0573,2.0565,2.0565,2.059,2.0586,2.0676,2.0687,2.062,2.0621,2.0621,0,2.022,2.0251,2.0283,2.0303,2.0319,2.0352,2.0373,2.0382,2.0403,2.0435,2.0457,2.0491,2.0518,2.0572,2.0587,2.0617,2.0615,2.0645,2.062,2.0616,2.0612,2.0609,2.0611,2.0649,2.0649,2.065,2.065,0,2.0289,2.0294,2.0325,2.0357,2.0382,2.0408,2.0433,2.045,2.0462,2.0486,2.0521,2.0542,2.0583,2.0616,2.0647,2.0661,2.0657,2.0658,2.0666,2.0663,2.0656,2.0657,2.0575,2.0656,2.0655,2.0655,2.0655,2.0654,2.0336,2.0362,2.0388,2.0422,2.0441,2.0464,2.049,2.0504,2.0534,2.0568,2.0572,2.0609,2.0633,2.0674,2.069,2.0717,2.0709,2.072,2.0722,2.0724,2.0725,2.0653,2.0723,2.0723,2.0723,2.0723,2.0723,0,2.0402,2.0419,2.045,2.0484,2.051,2.0506,2.0533,2.0554,2.0587,2.061,2.0636,2.0675,2.0706,2.0724,2.0754,2.0773,2.0772,2.0781,2.0778,2.0781,2.0732,2.0722,2.0781,2.0781,2.0781,2.0781,2.0781,2.0781,2.044,2.0483,2.0491,2.0543,2.0559,2.0595,2.0611,2.0631,2.0649,2.0693,2.0719,2.073,2.075,2.0782,2.081,2.0814,2.0824,2.0834,2.0836,2.079,2.0784,2.0779,2.0768,2.0836,2.0837,2.0882,2.0883,2.0883]},{"header":{"parameterUnit":"m.s-1","parameterCategory":1,"la1":30.2991,"la2":30.254,"lo1":-89.0895,"lo2":-89.0444,"dy":0.0017,"dx":0.0017,"nx":28,"ny":28,"refTime":"2024-07-23T09:00:00:Z","depth":0,"parameterNumber":3,"parameterNumberName":"V-component_of_WINDS"},"data":[0,0,0,0,0,0,0,0,0,0,0,0,0,0,0,0,0,0,0,0,0,0,0,0,0,0,0,0,0,0,0,0,0,0,0,0,0,0,0,0,0,0,0,0,0,0,0,0,0,0,0,0,0,0,0,0,0,0,1.4481,1.4483,0,1.4679,1.4681,1.4683,1.4724,1.4722,1.4721,1.4719,1.4924,1.4931,1.4937,0,0,0,0,0,0,0,0,0,0,0,0,0,1.4138,1.4144,1.4481,1.4483,1.4486,1.4678,1.4681,1.4684,1.4724,1.4722,1.4721,1.4719,1.4922,1.493,1.4938,0,0,0,0,0,0,0,0,0,0,0,0,0,1.4307,1.4146,1.448,1.4529,1.4535,1.4678,1.4681,1.4684,1.4725,1.4722,1.472,1.4718,1.4919,1.4929,1.4939,1.5047,0,0,1.497,1.4975,0,0,0,0,0,0,0,0,1.4297,1.4319,1.4519,1.4526,1.4533,1.4674,1.4635,1.4806,1.4725,1.4653,1.4719,1.4717,1.4843,1.4859,1.4901,1.5057,1.5066,1.4971,1.4978,1.4982,1.4985,0,0,0,0,0,0,0,1.4285,1.4311,1.4559,1.4522,1.4531,1.4541,1.4563,1.4668,1.4758,1.4659,1.4662,1.4685,1.4846,1.4891,1.4906,1.5069,1.4971,1.498,1.4986,1.499,1.5322,1.5325,0,0,0,0,0,0,1.4265,1.4301,1.4553,1.4565,1.4407,1.4549,1.4573,1.4631,1.4757,1.4774,1.4687,1.4686,1.4875,1.4894,1.4914,1.5049,1.4982,1.4991,1.4997,1.532,1.5323,1.5326,0,0,0,0,0,0,1.4257,1.4287,1.4545,1.4434,1.4468,1.4557,1.4622,1.4636,1.4682,1.4778,1.4794,1.4716,1.4874,1.4899,1.5014,1.5056,1.4996,1.5005,1.5317,1.5321,1.5324,1.5319,0,0,0,0,0,0,1.4247,1.4284,1.4326,1.4435,1.4473,1.4641,1.4625,1.4642,1.4699,1.47,1.481,1.4826,1.4874,1.4998,1.5024,1.5069,1.5013,1.5313,1.5318,1.5323,1.5316,1.5323,1.5328,0,0,0,0,0,1.4235,1.4318,1.4328,1.4358,1.4528,1.4644,1.4666,1.4719,1.4702,1.4745,1.4807,1.4823,1.5047,1.5009,1.5039,1.5088,1.5311,1.5317,1.5323,1.5313,1.5321,1.5328,0,0,0,0,0,0,1.4213,1.4333,1.4346,1.4466,1.4544,1.465,1.4707,1.4726,1.4811,1.4808,1.4871,1.4895,1.5006,1.5058,1.5014,1.5199,1.5178,1.519,1.5161,1.5169,1.5175,1.5161,1.5022,0,0,0,0,0,1.4222,1.4306,1.4406,1.4502,1.454,1.4616,1.4669,1.4703,1.4787,1.482,1.489,1.4971,1.506,1.5117,1.5204,1.5323,1.5348,1.5371,1.5377,1.5382,1.5392,1.5458,1.547,1.5345,1.5345,1.5345,0,0,1.4242,1.4318,1.4367,1.4499,1.4564,1.465,1.4644,1.4735,1.4799,1.4834,1.4946,1.5,1.5095,1.5211,1.5266,1.5259,1.5431,1.539,1.5392,1.54,1.5465,1.5477,1.5487,1.5349,1.5349,1.5348,0,0,1.4322,1.4387,1.4474,1.4539,1.4636,1.4686,1.4706,1.4809,1.4846,1.4959,1.4987,1.5064,1.5216,1.5282,1.5335,1.5437,1.5455,1.5464,1.5496,1.5559,1.5569,1.5578,1.5615,1.5627,1.5473,1.5473,1.5473,0,1.4335,1.4464,1.4517,1.4606,1.4664,1.4697,1.4786,1.4846,1.4967,1.5006,1.4995,1.5185,1.5251,1.5383,1.5408,1.545,1.5476,1.5452,1.5563,1.5573,1.5582,1.5618,1.5631,1.5474,1.5473,1.5473,1.5473,0,1.4475,1.4564,1.4622,1.4737,1.4801,1.4889,1.4956,1.5014,1.5041,1.5092,1.5206,1.5286,1.5389,1.5423,1.5451,1.5559,1.5551,1.5551,1.5531,1.5594,1.5628,1.5642,1.5474,1.5474,1.5474,1.5474,0,0,1.4549,1.469,1.4711,1.4763,1.4871,1.4942,1.5031,1.5131,1.518,1.5261,1.5338,1.5464,1.5464,1.5525,1.556,1.5616,1.5691,1.5609,1.5612,1.5622,1.5815,1.5814,1.5829,1.5703,1.5705,1.5708,1.5807,0,1.4642,1.4803,1.4852,1.4986,1.5069,1.5101,1.5179,1.5254,1.5303,1.5381,1.5435,1.5523,1.5517,1.5553,1.561,1.567,1.5731,1.5663,1.5775,1.5778,1.5751,1.5848,1.5848,1.5938,1.5821,1.5823,1.5825,0,1.4774,1.4856,1.4998,1.5095,1.5132,1.5201,1.5296,1.5369,1.5455,1.5486,1.5552,1.5583,1.5677,1.5651,1.5781,1.5734,1.5782,1.5818,1.5823,1.5837,1.5806,1.5864,1.5968,1.5982,1.5846,1.5845,1.5843,0,1.4813,1.496,1.5064,1.5108,1.5223,1.5271,1.5321,1.5404,1.5461,1.5544,1.5581,1.5673,1.5725,1.5796,1.585,1.5826,1.5976,1.5954,1.6005,1.6004,1.6037,1.6034,1.615,1.6066,1.6065,1.6065,1.6065,0,1.4913,1.4999,1.5083,1.5148,1.5244,1.5299,1.5394,1.5446,1.5519,1.5594,1.5627,1.5696,1.5763,1.5842,1.5885,1.5986,1.6009,1.6037,1.6048,1.6035,1.6031,1.6068,1.6064,1.6069,1.6068,1.6067,1.6067,0,1.4975,1.5035,1.5151,1.525,1.5276,1.5343,1.5428,1.5492,1.5541,1.5635,1.566,1.5738,1.5831,1.5892,1.6011,1.604,1.6151,1.6159,1.6122,1.6127,1.6175,1.617,1.632,1.6343,1.6242,1.6243,1.6243,0,1.5036,1.5103,1.5208,1.526,1.531,1.5394,1.5451,1.5507,1.5565,1.5666,1.5717,1.5812,1.5892,1.604,1.6107,1.6198,1.621,1.6256,1.6224,1.6208,1.6211,1.6207,1.6214,1.6261,1.6262,1.6263,1.6263,0,1.5137,1.5162,1.5244,1.5335,1.5402,1.5477,1.5551,1.5592,1.5661,1.5724,1.582,1.5881,1.6002,1.6097,1.6193,1.6245,1.6266,1.6273,1.6289,1.6278,1.6253,1.6267,1.6137,1.6269,1.6269,1.6268,1.6268,1.6268,1.5201,1.5261,1.5344,1.5433,1.5495,1.5563,1.5627,1.5683,1.5764,1.5866,1.5894,1.5994,1.6076,1.6208,1.6261,1.634,1.6335,1.6359,1.6365,1.637,1.6371,1.6239,1.6358,1.6358,1.6357,1.6357,1.6357,0,1.5304,1.5358,1.5439,1.5542,1.5611,1.5623,1.5706,1.5764,1.585,1.5925,1.6002,1.6111,1.6202,1.6275,1.6368,1.6417,1.6429,1.644,1.6438,1.6449,1.637,1.6347,1.6429,1.6429,1.6429,1.6429,1.6429,1.6429,1.5366,1.5468,1.5503,1.5636,1.569,1.5787,1.5834,1.5897,1.5956,1.6076,1.6152,1.6198,1.6272,1.6371,1.6455,1.6474,1.6507,1.6516,1.6537,1.6463,1.6455,1.6447,1.6426,1.6523,1.6523,1.661,1.6611,1.6611]}]]